Weather Roundup
Issued by NWS

Home | Current Version | Previous Version | Graphics & Text | Print | Product List | Glossary Off
Versions: 1 2 3 4 5 6 7 8 9 10 11 12 13 14 15 16 17 18 19 20 21 22 23 24 25 26 27 28 29 30 31 32 33 34 35 36 37 38 39 40 41 42 43 44 45 46 47 48 49 50

000
NZUS93 KARX 010359
HRRWXR

CURRENT HOURLY OBSERVATIONS ACROSS
MUCH OF THE UPPER MISSISSIPPI VALLEY
NATIONAL WEATHER SERVICE LA CROSSE WI
1100 PM CDT SUN AUG 31 2014


...SOUTHEAST MINNESOTA...


CITY           SKY/WX    TMP DP  RH WIND       PRES   REMARKS
ROCHESTER      RAIN      65  62  90 SW16      29.72R
ROCHESTER/MAYO MOCLDY    69  62  78 SW15G24   29.69R
WINONA         CLOUDY    70  64  83 CALM      29.67F
AUSTIN         TSTM      64  63  94 S10       29.72S
ALBERT LEA     TSTM      64  64 100 SE20      29.62F
DODGE CENTER   TSTM      66  64  94 W5        29.69F
PRESTON        LGT RAIN  64  64 100 SW12G18   29.75R
OWATONNA       TSTM      66  63  88 E8        29.64F
FARIBAULT      TSTM      70  63  78 CALM      29.67S
$$

...ELSEWHERE IN MINNESOTA...


CITY           SKY/WX    TMP DP  RH WIND       PRES   REMARKS
MINNEAPOLIS    RAIN      66  65  96 N6        29.65F FOG
INTNL FALLS    CLOUDY    64  63  94 SW6       29.58R
DULUTH         LGT RAIN  64  61  88 CALM      29.64R
RED WING       TSTM      70  64  83 N7        29.67F
REDWOOD FALLS  LGT RAIN  68  66  93 E3        29.67R
MANKATO        CLOUDY    66  63  88 NE12      29.61F
WORTHINGTON    CLOUDY    66  64  94 SW5       29.71R
FAIRMONT       CLOUDY    64  61  88 S6        29.70F
$$

...SOUTHWEST WISCONSIN...


CITY           SKY/WX    TMP DP  RH WIND       PRES   REMARKS
LA CROSSE      CLOUDY    70  67  90 SE5       29.69F
PRAIRIE DU CHI CLOUDY    79  66  64 S7        29.76R
BOSCOBEL       CLOUDY    78  68  71 S7        29.77R
LONE ROCK      NOT AVBL
PLATTEVILLE    CLOUDY    74  69  85 S12       29.81S
FORT MC COY    CLOUDY    77  65  67 S10G20    29.74S
VIROQUA        FAIR      74  67  78 S9G18     29.77R
WIS DELLS      MOCLDY    74  66  75 S13       29.79R
$$

...ELSEWHERE IN WISCONSIN...


CITY           SKY/WX    TMP DP  RH WIND       PRES   REMARKS
MILWAUKEE      PTCLDY    74  66  76 S9        29.84S
MADISON        MOCLDY    75  69  81 S12       29.81S
GREEN BAY      MOCLDY    67  65  93 S5        29.81R
EAU CLAIRE     NOT AVBL
BLACK RVR FLS  FAIR      68  68 100 CALM      29.72S
MEDFORD        CLOUDY    71  63  77 S8        29.78R
WAUSAU         CLOUDY    72  67  84 SE7       29.78R
WIS RAPIDS     CLOUDY    75  67  76 S9        29.78R
MARSHFIELD     CLOUDY    72  68  87 SE7       29.76S
RICE LAKE      LGT RAIN  71  65  81 S12G18    29.72R
$$

...NORTHEAST IOWA...


CITY           SKY/WX    TMP DP  RH WIND       PRES   REMARKS
WATERLOO       RAIN      65  63  93 W7        29.85R FOG
DUBUQUE        CLOUDY    74  69  85 S15       29.79S
DECORAH        DRIZZLE   75  72  88 S13G22    29.75S
MASON CITY     LGT RAIN  63  62  97 S14       29.74F
CHARLES CITY   LGT RAIN  64  63  94 SW8       29.81R
OELWEIN        LGT RAIN  75  72  88 S8        29.79R
$$

...ELSEWHERE IN IOWA...


CITY           SKY/WX    TMP DP  RH WIND       PRES   REMARKS
DES MOINES     TSTM      68  65  90 SE15      29.76F FOG
IOWA CITY      CLOUDY    76  71  85 SE9       29.79R
FORT DODGE     CLOUDY    64  63  94 SE7       29.70F
MARSHALLTOWN   TSTM      64  64 100 N9G22     29.83F FOG
CEDAR RAPIDS   CLOUDY    77  71  82 S10       29.77R
$$

...NORTHERN ILLINOIS...


CITY           SKY/WX    TMP DP  RH WIND       PRES   REMARKS
CHICAGO-OHARE  CLEAR     75  67  76 S8        29.88R
DUPAGE         CLEAR     72  69  90 S7        29.88R
CHICAGO-MIDWAY PTCLDY    78  71  79 S6        29.88R
MOLINE         CLOUDY    74  69  85 S10       29.81S
ROCKFORD       MOCLDY    74  69  85 S13       29.85S
STERLING       MOCLDY    73  70  88 S5        29.84S
PEORIA         CLEAR     77  70  79 S12       29.86F
$$

NOTE: "FAIR" INDICATES FEW OR NO CLOUDS BELOW 12,000 FEET WITH NO
SIGNIFICANT WEATHER AND/OR OBSTRUCTIONS TO VISIBILITY. WIND
SPEEDS ARE IN MILES-PER-HOUR.



USA.gov is the U.S. government's official web portal to all federal, state and local government web resources and services.